Regional Weather Roundup
Issued by NWS Jackson, KY

Home | Current Version | Previous Version | Graphics & Text | Print | Product List | Glossary On
Versions: 1 2 3 4 5 6 7 8 9 10 11 12 13 14 15 16 17 18 19 20 21 22 23 24 25 26 27 28 29 30 31 32 33 34 35 36 37 38 39 40 41 42 43 44 45 46 47 48 49 50
000
ASUS43 KJKL 310705
RWRJKL

EAST KENTUCKY HOURLY WEATHER ROUNDUP
NATIONAL WEATHER SERVICE JACKSON KY
300 AM EDT SUN AUG 31 2014

NOTE: "FAIR" INDICATES FEW OR NO CLOUDS BELOW 12,000 FEET WITH
NO SIGNIFICANT WEATHER AND/OR OBSTRUCTIONS TO VISIBILITY.

* THESE REPORTS ARE NOT UNDER NWS QUALITY CONTROL AND MAY NOT
  REPORT WEATHER SUCH AS PRECIPITATION AND FOG.

KYZ079-080-083-085-087-088-110-112-115-119-120-310800
...EASTERN KENTUCKY...

CITY           SKY/WX    TMP DP  RH WIND       PRES   REMARKS
JACKSON        LGT RAIN  69  67  93 VRB5      30.10F
LONDON         CLOUDY    71  68  90 S7        30.11R
SOMERSET*      CLOUDY    70  70 100 S3        30.11R
MONTICELLO*    CLOUDY    71  69  93 CALM      30.11S
WILLIAMSBURG*  CLEAR     68  68 100 SE3       30.11F
MIDDLESBORO*   CLOUDY    71  69  95 CALM      30.13F
HARLAN APT*    CLOUDY    70  70 100 MISG      30.15F
BLACK MTN*       N/A     61  61 100 SW8         N/A
PIKEVILLE APT* LGT RAIN  70  68  94 S3        30.14S
BIG SANDY*     LGT RAIN  70  69  96 S6        30.13F
MOREHEAD APT*  LGT RAIN  72  70  94 SW5       30.08F
$$

KYZ035-036-041-042-044-050-067-078-099-310800
...CENTRAL KENTUCKY...

CITY           SKY/WX    TMP DP  RH WIND       PRES   REMARKS
MT STERLING*   DRIZZLE   70  70 100 CALM      30.05F
FLEMING/MASON* DRIZZLE   71  70  97 SW7       30.07F
DANVILLE*      DRIZZLE   68  68 100 S8        30.07S
RICHMOND*      CLOUDY    70  66  88 S3        30.06R
LEXINGTON      LGT RAIN  73  69  87 S5        30.04F
FRANKFORT      LGT RAIN  72  71  97 CALM      30.02F FOG
$$

KYZ091>093-OHZ055-061-077-WVZ005-015-034-035-042-310800
...SOUTHERN OHIO/WEST VIRGINIA...

CITY           SKY/WX    TMP DP  RH WIND       PRES   REMARKS
COVINGTON      CLOUDY    72  69  90 S6        30.04F FOG
COLUMBUS       CLOUDY    73  69  87 S8        30.04R
DAYTON         CLOUDY    73  68  84 SW10      30.04F
WILMINGTON     CLOUDY    69  67  93 SW6       30.05F FOG
HUNTINGTON     LGT RAIN  71  69  93 S7        30.07F
CHARLESTON     CLOUDY    75  68  78 W10       30.10R
PINEVILLE*     CLOUDY    71  71  99 MISG      30.20S
BECKLEY        CLOUDY    72  64  76 SE5       30.19F
BLUEFIELD      CLOUDY    74  62  66 S3        30.23S
$$

VAZ002-007-008-TNZ017-027-036-066-071-310800
...SOUTHWEST VIRGINIA/EAST TENNESSEE...

CITY           SKY/WX    TMP DP  RH WIND       PRES   REMARKS
WISE*          RAIN      66  66 100 SW3       30.24F
JONESVILLE*      N/A     68  68 100 CALM      30.17F
ABINGDON*      CLOUDY    73  69  87 CALM      30.19S
BRISTOL        RAIN      70  67  90 W10       30.20R FOG
KNOXVILLE      CLOUDY    70  68  93 CALM      30.13F
OAK RIDGE      CLOUDY    72  70  93 CALM      30.15F
CROSSVILLE     MOCLDY    81  66  60 S3        30.16F
NASHVILLE      CLOUDY    72  70  93 S7        30.07S
$$

...KEY TO REMARKS...
VSB - VISIBILITY IN MILES
WCI - WIND CHILL INDEX
HX  - HEAT INDEX

$$


USA.gov is the U.S. government's official web portal to all federal, state and local government web resources and services.